Kaneohe MCBH, HI

2:36 PM HST on April 22, 2018 (GMT -1000)
Kaneohe Bay Marine Corps Air Facility

Weather History for PHNG - February, 2012

Change the Weather History Date:

Tuesday, February 7, 2012

  Actual Average Record
Temperature  
Mean Temperature 74 °F -  
Max Temperature 79 °F 75 °F 81 °F (2017)
Min Temperature 69 °F 66 °F 61 °F (2001)
Cooling Degree Days 9    
Growing Degree Days 24 (Base 50)    
Moisture  
Dew Point 65 °F    
Average Humidity 77    
Maximum Humidity 100    
Minimum Humidity 60    
Precipitation  
Precipitation 0.09 in - - ()
Sea Level Pressure  
Sea Level Pressure 29.86 in    
Wind  
Wind Speed 12 mph (WSW)    
Max Wind Speed 22 mph    
Max Gust Speed 36 mph    
Visibility 10 miles    
Events Rain    
Averages and records for this station are not official NWS values.
T = Trace of Precipitation, MM = Missing Value Source: NWS Daily Summary

Daily Weather History Graph

Daily Weather History Graph

Search for Another Location

Airport or City:

Astronomy

Feb. 07, 2012 Rise Set
Actual Time 7:06 AM HST 6:24 PM HST
Civil Twilight 6:43 AM HST 6:47 PM HST
Nautical Twilight 6:16 AM HST 7:13 PM HST
Astronomical Twilight 5:50 AM HST 7:40 PM HST
Moon 6:38 PM HST (2/7) 6:47 AM HST (2/7)
Length of Visible Light 12h 04m
Length of Day
11h 18m
Full, 100% of the Moon is Illuminated
Feb 7
Full
Feb 14
Last Quarter
Feb 21
New
Feb 29
First Quarter
Mar 7
Full

Hourly Weather History & Observations

Time (HST) Temp. Dew Point Humidity Pressure Visibility Wind Dir Wind Speed Gust Speed Precip Events Conditions
12:57 AM 73.0 °F 64.9 °F 76% 29.87 in 10.0 mi West 15.0 mph 21.9 mph N/A   Overcast
1:57 AM 73.0 °F 64.9 °F 76% 29.86 in 10.0 mi WSW 6.9 mph - N/A   Mostly Cloudy
2:57 AM 72.0 °F 64.9 °F 78% 29.84 in 10.0 mi SW 9.2 mph - N/A   Scattered Clouds
3:42 AM 71.6 °F 66.2 °F 83% 29.84 in 6.2 mi SSW 6.9 mph - N/A   Mostly Cloudy
3:57 AM 72.0 °F 66.0 °F 81% 29.83 in 10.0 mi SW 8.1 mph - 0.00 in Rain Light Rain
4:57 AM 73.0 °F 66.0 °F 79% 29.82 in 10.0 mi WSW 15.0 mph 20.7 mph 0.00 in Rain Light Rain
5:57 AM 73.0 °F 66.0 °F 79% 29.82 in 10.0 mi SW 12.7 mph - 0.00 in   Overcast
6:57 AM 73.9 °F 64.0 °F 71% 29.83 in 10.0 mi SW 11.5 mph 23.0 mph N/A   Overcast
7:57 AM 73.9 °F 64.9 °F 73% 29.84 in 10.0 mi SW 9.2 mph 18.4 mph 0.00 in   Mostly Cloudy
8:57 AM 73.9 °F 66.0 °F 76% 29.85 in 10.0 mi SW 16.1 mph 24.2 mph 0.00 in Rain Light Rain
9:18 AM 75.2 °F 66.2 °F 73% 29.87 in 10.0 mi SW 12.7 mph 24.2 mph 0.00 in Rain Light Rain
9:57 AM 75.0 °F 64.9 °F 71% 29.87 in 10.0 mi SW 9.2 mph 21.9 mph 0.00 in Rain Light Rain
10:57 AM 73.0 °F 66.9 °F 81% 29.88 in 10.0 mi SSW 6.9 mph - 0.00 in Rain Light Rain
11:57 AM 73.9 °F 66.0 °F 76% 29.86 in 10.0 mi WSW 12.7 mph 17.3 mph 0.03 in Rain Light Rain
12:57 PM 77.0 °F 64.9 °F 66% 29.82 in 10.0 mi SW 15.0 mph 21.9 mph 0.00 in Rain Light Rain
1:57 PM 73.9 °F 68.0 °F 82% 29.80 in 10.0 mi WSW 13.8 mph 27.6 mph 0.05 in Rain Light Rain
2:57 PM 78.8 °F 66.2 °F 65% 29.80 in 10.0 mi West 19.6 mph 28.8 mph N/A   Scattered Clouds
3:57 PM 79.0 °F 64.0 °F 60% 29.79 in 10.0 mi West 13.8 mph 23.0 mph N/A   Scattered Clouds
4:57 PM 73.0 °F 66.9 °F 81% 29.82 in 10.0 mi NNW 21.9 mph 26.5 mph N/A   Overcast
5:22 PM 69.8 °F 68.0 °F 94% 29.86 in - NNW 17.3 mph 35.7 mph 0.01 in Rain Rain
5:57 PM 70.0 °F 68.0 °F 93% 29.86 in 3.0 mi WNW 11.5 mph - 0.01 in   Overcast
6:04 PM 69.8 °F 69.8 °F 100% 29.88 in 10.0 mi NNW 12.7 mph - N/A   Overcast
6:57 PM 71.1 °F 71.1 °F 100% 29.86 in 10.0 mi West 8.1 mph - N/A   Mostly Cloudy
7:57 PM 71.1 °F 62.1 °F 73% 29.89 in 10.0 mi West 9.2 mph - 0.00 in   Mostly Cloudy
8:57 PM 72.0 °F 62.1 °F 71% 29.91 in 10.0 mi West 4.6 mph - N/A   Overcast
9:57 PM 72.0 °F 62.1 °F 71% 29.93 in 10.0 mi West 8.1 mph - N/A   Overcast
10:57 PM 71.1 °F 61.0 °F 70% 29.94 in 10.0 mi NW 12.7 mph - N/A   Overcast
11:57 PM 71.1 °F 57.0 °F 61% 29.95 in 10.0 mi NW 13.8 mph - N/A   Overcast